Regional Weather Roundup
Issued by NWS

Home | Current Version | Previous Version | Graphics & Text | Print | Product List | Glossary On
Versions: 1 2 3 4 5 6 7 8 9 10 11 12 13 14 15 16 17 18 19 20 21 22 23 24 25 26 27 28 29 30 31 32 33 34 35 36 37 38 39 40 41 42 43 44 45 46 47 48 49 50
000
ASUS43 KLSX 030107
RWRMO

WEATHER SUMMARY FOR MISSOURI
NATIONAL WEATHER SERVICE SPRINGFIELD MO
800 PM CDT SAT MAY 02 2015

NOTE: "FAIR" INDICATES FEW OR NO CLOUDS BELOW 12,000 FEET WITH NO
       SIGNIFICANT WEATHER AND/OR OBSTRUCTIONS TO VISIBILITY.
       CURRENT SKY AND/OR WEATHER CONDITIONS ARE NOT AVAILABLE FOR
       CHILLICOTHE AND FARMINGTON.

MOZ001>031-035>038-043-044-053-054-030200-
...NORTHERN AND WESTERN MISSOURI...

CITY           SKY/WX    TMP DP  RH WIND       PRES   REMARKS
KANSAS CTY INT PTCLDY    69  54  58 S10       29.89S
KANSAS C DTWN  CLEAR     74  52  46 S9        29.88F
LEE`S SUMMIT   CLEAR     70  52  52 S6        29.91F
ST JOSEPH      CLEAR     70  55  59 S12       29.87S
CHILLICOTHE      N/A     65  56  72 SE7       29.92F
KIRKSVILLE     CLOUDY    60  57  89 SE8       29.95F

$$
MOZ066>068-077>081-088>096-101>105-030200-
...SOUTHWEST MISSOURI...

CITY           SKY/WX    TMP DP  RH WIND       PRES   REMARKS
SPRINGFIELD    PTCLDY    70  50  49 S6        29.97S
JOPLIN         CLEAR     70  51  51 S6        29.95F

$$
MOZ032>034-039>042-045>050-055>058-069>072-030200-
...CENTRAL MISSOURI...

CITY           SKY/WX    TMP DP  RH WIND       PRES   REMARKS
COLUMBIA       LGT RAIN  69  52  54 E7        29.95S
JEFFERSON CITY CLOUDY    74  46  36 E3        29.94S
ROLLA          CLOUDY    69  45  41 S6        29.96F
SEDALIA        PTCLDY    70  50  49 S8        29.96S
WHITEMAN AFB   PTCLDY    67  52  59 S7        29.92F
WARRENSBURG    MOCLDY    68  50  52 SE6       29.92F
OSAGE BEACH    CLOUDY    73  45  35 SW6       29.96S

$$
MOZ051-052-059>065-030200-
...EAST CENTRAL MISSOURI...

CITY           SKY/WX    TMP DP  RH WIND       PRES   REMARKS
ST LOUIS INTL  CLOUDY    73  44  35 E7        29.99R
SPIRIT OF STL  CLOUDY    71  46  40 E6        29.96S
ST CHARLES     CLOUDY    71  44  37 E7        29.97S

$$
MOZ072>076-082>087-097>100-106>115-030200-
...SOUTH CENTRAL AND SOUTHEAST MISSOURI...

CITY           SKY/WX    TMP DP  RH WIND       PRES   REMARKS
CAPE GIRARDEAU CLEAR     67  43  41 SW5       30.02S
FARMINGTON     PTCLDY    68  43  40 S7        30.05R
POPLAR BLUFF   CLEAR     65  51  60 CALM      30.01S
WEST PLAINS    MOCLDY    70  42  36 SE5       30.02S

$$


USA.gov is the U.S. government's official web portal to all federal, state and local government web resources and services.